Location: Baia Mare
(47.6567°N, 23.5850°E)
Time: 15:45:49
(UTC+03:00)

ISS - Pass Details

Date: 21 May 2018
Orbit: 402 x 407 km, 51.6° (Epoch: 25 May)

Event Time Altitude Azimuth Distance (km) Brightness Sun altitude
Rises 00:08:39 0° 253° (WSW) 2,313 0.0 -20.2°
Reaches altitude 10° 00:10:44 10° 256° (WSW) 1,455 -1.0 -20.4°
Maximum altitude 00:13:59 67° 340° (NNW) 440 -3.6 -20.5°
Drops below altitude 10° 00:17:14 10° 64° (ENE) 1,458 -0.9 -20.7°
Sets 00:19:20 0° 67° (ENE) 2,319 0.1 -20.8°
